Tracking 35048 objects as of 19-Aug-2026
HD Live streaming from Space Station
objects crossing your sky now

ORESAT0.5

Track ORESAT0.5 now!
10-day predictions
ORESAT0.5 is classified as:


NORAD ID: 60525
Int'l Code: 2024-149BK
Launch date: August 16, 2024
Source: United States (US)
Launch site: AIR FORCE WESTERN TEST RANGE (AFWTR)

Uplink (MHz):
Downlink (MHz): 436.500
Beacon (MHz):
Mode: 9k6 GMSK
Call sign: KJ7SAT
Status: Inactive

Your satellite tracking list
Your tracking list is empty




NASA's NSSDC Master Catalog

Two Line Element Set (TLE):
1 60525U 24149BK  26230.89273082  .00019761  00000-0  38862-3 0  9994
2 60525  97.3694 317.9482 0006015  62.8085 297.3777 15.47292861112161
Source of the keplerian elements: AFSPC